Weather History for Broomfield, CO

Change the Weather History Date:

Tuesday, March 8, 2011

  Actual Average Record
Temperature  
Mean Temperature 27 °F -  
Max Temperature 35 °F 48 °F 72 °F (1986)
Min Temperature 19 °F 27 °F 5 °F (1998)
Degree Days  
Heating Degree Days 38    
Moisture  
Dew Point 18 °F    
Average Humidity 77    
Maximum Humidity 100    
Minimum Humidity 33    
Precipitation  
Precipitation 0.00 in - - ()
Sea Level Pressure  
Sea Level Pressure 29.82 in    
Wind  
Wind Speed 7 mph (North)    
Max Wind Speed 29 mph    
Max Gust Speed 39 mph    
Visibility 5 miles    
Events Fog , Snow    
Averages and records for this station are not official NWS values.
T = Trace of Precipitation, MM = Missing Value Source: NWS Daily Summary

Daily Weather History Graph

Daily Weather History Graph

Search for Another Location

Airport:

Trip Planner

Search our weather history database for the weather conditions in past years. The results will help you decide how hot, cold, wet, or windy it might be!

Date:

Astronomy

Mar. 08, 2011 Rise Set
Actual Time 6:23 AM MST 5:59 PM MST
Civil Twilight 5:56 AM MST 6:26 PM MST
Nautical Twilight 5:25 AM MST 6:58 PM MST
Astronomical Twilight 4:53 AM MST 7:29 PM MST
Moon 7:44 AM MST (3/8) 10:00 PM MST (3/8)
Length of Visible Light 12h 30m
Length of Day
11h 36m
Waxing Crescent, 13% of the Moon is Illuminated
Mar 8
Waxing Crescent
Mar 12
First Quarter
Mar 19
Full
Mar 26
Last Quarter
Apr 3
New

Hourly Weather History & Observations

Time (MST) Temp. Windchill Dew Point Humidity Pressure Visibility Wind Dir Wind Speed Gust Speed Precip Events Conditions
12:14 AM 21.2 °F 13.6 °F 17.6 °F 86% 29.69 in 7.0 mi North 5.8 mph - N/A   Overcast
12:35 AM 21.2 °F 12.6 °F 17.6 °F 86% 29.69 in 7.0 mi North 6.9 mph - N/A   Overcast
12:54 AM 21.2 °F 10.9 °F 17.6 °F 86% 29.69 in 7.0 mi North 9.2 mph - N/A   Overcast
1:15 AM 21.2 °F 10.9 °F 17.6 °F 86% 29.69 in 7.0 mi North 9.2 mph - N/A   Overcast
1:35 AM 21.2 °F 10.9 °F 17.6 °F 86% 29.69 in 7.0 mi North 9.2 mph - N/A   Overcast
1:55 AM 21.2 °F 11.7 °F 17.6 °F 86% 29.69 in 5.0 mi North 8.1 mph - N/A   Overcast
2:15 AM 21.2 °F 11.7 °F 19.4 °F 93% 29.69 in 4.0 mi North 8.1 mph - N/A   Overcast
2:35 AM 21.2 °F 12.6 °F 19.4 °F 93% 29.69 in 5.0 mi North 6.9 mph - N/A   Overcast
2:54 AM 21.2 °F 12.6 °F 19.4 °F 93% 29.68 in 5.0 mi North 6.9 mph - N/A   Overcast
3:15 AM 21.2 °F 11.7 °F 21.2 °F 100% 29.68 in 3.0 mi North 8.1 mph - N/A   Overcast
3:35 AM 21.2 °F 12.6 °F 21.2 °F 100% 29.68 in 2.5 mi North 6.9 mph - N/A   Overcast
3:55 AM 21.2 °F 12.6 °F 21.2 °F 100% 29.68 in 2.0 mi North 6.9 mph - N/A   Overcast
4:15 AM 21.2 °F 13.6 °F 21.2 °F 100% 29.68 in 1.2 mi North 5.8 mph - N/A   Overcast
4:35 AM 21.2 °F 12.6 °F 19.4 °F 93% 29.68 in 1.2 mi North 6.9 mph - N/A   Overcast
4:55 AM 21.2 °F 12.6 °F 19.4 °F 93% 29.69 in 1.2 mi North 6.9 mph - N/A   Overcast
5:45 AM 21.2 °F 12.6 °F 19.4 °F 93% 29.70 in 1.0 mi North 6.9 mph - N/A   Unknown
6:13 AM 19.4 °F 11.5 °F 17.6 °F 93% 29.71 in 0.5 mi NNE 5.8 mph - N/A Fog Light Freezing Fog
6:45 AM 19.4 °F 11.5 °F 17.6 °F 93% 29.73 in 0.5 mi NNE 5.8 mph - N/A Fog Light Freezing Fog
7:08 AM 19.4 °F 12.8 °F 17.6 °F 93% 29.75 in 0.2 mi North 4.6 mph - N/A Fog Light Freezing Fog
7:48 AM 19.4 °F - 17.6 °F 93% 29.77 in 0.1 mi Calm Calm - N/A Fog Light Freezing Fog
8:14 AM 21.2 °F 14.9 °F 19.4 °F 93% 29.79 in 0.5 mi North 4.6 mph - N/A Fog Light Freezing Fog
8:46 AM 21.2 °F 13.6 °F 19.4 °F 93% 29.87 in 0.5 mi North 5.8 mph - N/A Fog Light Freezing Fog
9:10 AM 21.2 °F 12.6 °F 19.4 °F 93% 29.83 in 1.0 mi North 6.9 mph - N/A   Mist
9:49 AM 21.2 °F 12.6 °F 21.2 °F 100% 29.85 in 1.0 mi North 6.9 mph - N/A Snow Light Snow
10:49 AM 23.0 °F 15.8 °F 21.2 °F 93% 29.88 in 0.9 mi NNE 5.8 mph - N/A Snow Light Snow
11:33 AM 24.8 °F 20.5 °F 23.0 °F 93% 29.88 in 2.0 mi Variable 3.5 mph - N/A Snow Light Snow
11:49 AM 24.8 °F 20.5 °F 24.8 °F 100% 29.88 in 1.5 mi Variable 3.5 mph - N/A   Overcast
12:54 PM 30.2 °F 23.4 °F 26.6 °F 86% 29.88 in 4.0 mi NNE 6.9 mph - N/A   Mostly Cloudy
1:46 PM 32.0 °F 28.7 °F 23.0 °F 69% 29.89 in 10.0 mi NNE 3.5 mph - N/A   Mostly Cloudy
2:53 PM 32.0 °F 26.4 °F 21.2 °F 64% 29.91 in 10.0 mi NE 5.8 mph - N/A   Overcast
3:48 PM 35.6 °F 31.7 °F 21.2 °F 56% 29.93 in 8.0 mi ESE 4.6 mph - N/A   Mostly Cloudy
4:50 PM 33.8 °F - 21.2 °F 60% 29.95 in 12.0 mi Calm Calm - N/A   Mostly Cloudy
5:50 PM 32.0 °F 27.5 °F 21.2 °F 64% 29.96 in 8.0 mi ESE 4.6 mph - N/A   Partly Cloudy
6:50 PM 30.2 °F 25.4 °F 21.2 °F 69% 29.97 in 10.0 mi SE 4.6 mph - N/A   Partly Cloudy
7:52 PM 28.4 °F 21.2 °F 21.2 °F 74% 29.96 in 10.0 mi SE 6.9 mph - N/A   Partly Cloudy
8:49 PM 32.0 °F 23.6 °F 10.4 °F 41% 29.98 in 10.0 mi NW 10.4 mph 16.1 mph N/A   Partly Cloudy
9:46 PM 32.0 °F 24.2 °F 8.6 °F 38% 29.98 in 10.0 mi NW 9.2 mph 18.4 mph N/A   Partly Cloudy
10:15 PM 35.6 °F 22.7 °F 8.6 °F 33% 29.98 in 10.0 mi WNW 28.8 mph 39.1 mph N/A   Clear
10:35 PM 35.6 °F 25.2 °F 8.6 °F 33% 29.98 in 10.0 mi NW 18.4 mph 34.5 mph N/A   Clear
10:54 PM 35.6 °F 24.5 °F 8.6 °F 33% 29.98 in 10.0 mi WNW 20.7 mph 35.7 mph N/A   Clear
11:15 PM 35.6 °F 24.8 °F 8.6 °F 33% 29.98 in 10.0 mi WNW 19.6 mph 29.9 mph N/A   Clear
11:35 PM 35.6 °F 27.5 °F 8.6 °F 33% 29.99 in 10.0 mi NW 11.5 mph - N/A   Clear
11:55 PM 35.6 °F 29.2 °F 8.6 °F 33% 29.99 in 10.0 mi NNW 8.1 mph 17.3 mph N/A   Clear